JH0KSP-13 Weather Reports


time (UTC)temp
F
wind
direction
speed
knots
gust
knots
rain 1hr
in
rain 24hr
in
rain mn
in
humidity
%
barometer
mb
20260505123008 54 295 3.5 4.3 0.00 1.08 0.00 82 1023.1
20260505122657 54 269 2.6 4.3 0.00 1.08 0.00 83 1023.1
20260505121008 54 239 0.0 2.6 0.00 1.08 0.00 81 1022.9
20260505120656 54 239 0.0 2.6 0.00 1.08 0.00 82 1022.9
20260505120008 55 260 0.0 2.6 0.00 1.08 0.00 82 1023.0
20260505115009 55 259 1.7 4.3 0.00 1.08 0.00 81 1022.9
20260505114655 55 222 0.0 3.5 0.00 1.08 0.00 80 1022.9
20260505112656 55 210 4.3 7.0 0.00 1.08 0.00 67 1022.6
20260505110657 57 245 1.7 4.3 0.00 1.08 0.00 71 1022.4
20260505100655 59 215 1.7 9.6 0.00 1.08 0.00 61 1021.4
20260505094656 61 205 2.6 7.0 0.00 1.08 0.00 59 1021.0
20260505092655 61 163 7.8 15.6 0.00 1.08 0.00 56 1020.8
20260505090656 63 176 9.6 16.5 0.00 1.08 0.00 56 1020.3
20260505084656 64 150 9.6 18.2 0.00 1.08 0.00 54 1020.1
20260505082655 64 198 7.8 20.0 0.00 1.08 0.00 53 1020.0
20260505080656 66 153 9.6 18.2 0.00 1.08 0.00 51 1019.9
20260505074657 66 181 8.7 20.0 0.00 1.08 0.00 50 1019.9
20260505072657 68 172 9.6 20.0 0.00 1.08 0.00 49 1019.8
20260505070655 68 158 10.4 17.4 0.00 1.08 0.00 46 1019.7
20260505064655 70 143 10.4 22.6 0.00 1.08 0.00 45 1019.4
20260505062656 70 186 8.7 19.1 0.00 1.08 0.00 42 1018.9
20260505060657 70 167 10.4 15.6 0.00 1.08 0.00 39 1018.6
20260505054655 72 165 9.6 15.6 0.00 1.08 0.00 37 1018.5
20260505052656 72 155 6.1 10.4 0.00 1.08 0.00 34 1018.6
20260505050655 72 228 5.2 10.4 0.00 1.08 0.00 30 1018.7
20260505040656 70 242 3.5 8.7 0.00 1.08 0.00 26 1019.1
20260505034656 70 195 4.3 7.8 0.00 1.08 0.00 24 1019.1
20260505032657 68 173 7.8 11.3 0.00 1.08 0.00 23 1019.2
20260505030656 66 128 4.3 9.6 0.00 1.08 0.00 26 1019.2
20260505024656 66 205 4.3 7.8 0.00 1.08 0.00 25 1019.4
20260505022656 66 146 0.9 5.2 0.00 1.08 0.00 31 1019.4
20260505020656 63 142 1.7 7.8 0.00 1.08 0.00 27 1019.7
20260505014657 63 204 3.5 6.1 0.00 1.08 0.00 39 1019.8
20260505012656 61 197 2.6 7.0 0.00 1.08 0.00 41 1019.9
20260505011009 61 142 0.0 7.0 0.00 1.08 0.00 44 1020.0
20260505010655 61 188 2.6 7.0 0.00 1.08 0.00 42 1020.1
20260505010009 61 32 0.0 6.1 0.00 1.08 0.00 45 1020.0
20260505005009 59 73 0.9 5.2 0.00 1.08 0.00 47 1020.1
20260505004655 59 135 2.6 5.2 0.00 1.08 0.00 47 1020.1
20260505004008 59 347 0.0 4.3 0.00 1.08 0.00 47 1020.1
20260505003010 57 184 5.2 7.0 0.00 1.08 0.00 46 1020.2
20260505002656 57 212 0.0 5.2 0.00 1.08 0.00 49 1020.2
20260505000655 55 82 1.7 5.2 0.00 1.08 0.00 51 1020.2
20260504234655 54 129 0.9 6.1 0.00 1.08 0.00 53 1020.1
20260504232656 54 264 0.0 6.1 0.00 1.08 0.00 56 1020.0
20260504230656 52 158 2.6 7.0 0.00 1.08 0.00 62 1020.1
20260504225008 50 172 3.5 7.8 0.00 1.08 0.00 66 1019.9
20260504224657 50 193 1.7 7.8 0.00 1.08 0.00 67 1019.9
20260504222656 48 228 0.0 6.1 0.00 1.08 0.00 72 1019.7
20260504220655 48 114 1.7 6.1 0.00 1.08 0.00 73 1019.6
20260504214657 46 179 4.3 6.1 0.00 1.08 0.00 76 1019.5
20260504212656 46 156 5.2 6.1 0.00 1.08 0.00 78 1019.3
20260504210657 45 167 0.0 2.6 0.00 1.08 0.00 80 1018.8
20260504204656 45 271 1.7 4.3 0.00 1.08 0.00 82 1018.2
20260504202655 45 210 0.0 7.0 0.00 1.08 0.00 78 1017.7
20260504202009 45 308 4.3 8.7 0.00 1.08 0.00 78 1017.5
20260504201008 45 270 2.6 7.8 0.00 1.08 0.00 80 1017.2
20260504200656 43 263 3.5 7.8 0.00 1.08 0.00 80 1017.2
20260504194657 45 305 5.2 8.7 0.00 1.08 0.00 77 1016.6
20260504192656 45 281 4.3 8.7 0.00 1.08 0.00 75 1015.6
20260504190655 45 6 4.3 7.0 0.00 1.08 0.00 85 1015.2
20260504184656 45 302 5.2 8.7 0.00 1.08 0.00 85 1014.8
20260504182657 45 332 0.0 2.6 0.00 1.08 0.00 92 1014.6
20260504180656 45 242 2.6 4.3 0.00 1.08 0.00 95 1014.3
20260504174656 45 243 1.7 4.3 0.00 1.08 0.00 96 1013.9
20260504173009 45 218 0.0 4.3 0.00 1.08 0.00 98 1013.6
20260504172655 46 139 2.6 4.3 0.00 1.08 0.00 97 1013.4
20260504170657 46 242 0.0 4.3 0.00 1.08 0.00 96 1013.1
20260504150656 48 76 2.6 3.5 0.00 1.08 0.00 87 1012.0
20260504140657 50 340 0.0 3.5 0.00 1.81 1.08 79 1011.1
20260504130655 54 113 3.5 9.6 0.00 1.81 1.08 67 1010.2